Simultaneous Nadir Overpasses (SNOs) Predictions

Prediction of SNOs between GOES-16 and METOP-B Satellite Orbit:

Table of predicted SNOs for the next 14.0 days since TLE Epoch: 4/9/2022
Index Date Time (GOES-16) GOES-16 Lat,Lon METOP-B Lat,Lon Distance(km) Time Diff (sec)
1 04/09/2022 14:21:05 0.06, -75.22 -0.39, -73.13 236.80 80
2 04/11/2022 02:42:46 -0.06, -75.21 -0.63, -77.73 287.87 80
3 04/12/2022 02:19:26 -0.05, -75.21 0.48, -72.73 281.61 80
4 04/13/2022 14:38:18 0.05, -75.23 0.52, -77.30 235.75 80
5 04/14/2022 14:20:19 0.05, -75.24 -0.59, -72.30 334.27 80
6 04/16/2022 02:39:19 -0.05, -75.24 -0.42, -76.90 189.11 80
7 04/17/2022 02:16:00 -0.05, -75.25 0.70, -71.91 381.05 80
8 04/18/2022 14:34:52 0.05, -75.28 0.29, -76.47 135.71 80
9 04/19/2022 14:16:53 0.05, -75.29 -0.82, -71.48 434.55 80
10 04/21/2022 02:35:52 -0.05, -75.29 -0.24, -76.06 88.71 80
11 04/22/2022 02:12:32 -0.04, -75.30 0.88, -71.07 481.52 80
